This demonstration page uses our WeatherBlox Daily Observations layout. Learn more.

Hourly Observations for May 1, 2018

Temp ( °F °C ) Dew Point ( °F °C ) Humidity (%) Winds ( mph kmh ) Pressure ( in mb ) Visibility ( mi km ) Precip ( " mm )
12:15 am 00:15 Clear 55 13 32 0 41 41 W 3 6 30.12 1020 10 16.09344 0 0
12:30 am 00:30 Clear 55 13 32 0 41 41 W 3 6 30.12 1020 10 16.09344 0 0
12:55 am 00:55 Clear 54 12 32 0 44 44 W 3 6 30.12 1020 10 16.09344 0 0
1:15 am 01:15 Clear 54 12 32 0 44 44 Calm 30.12 1020 10 16.09344 0 0
1:35 am 01:35 Clear 52 11 32 0 47 47 SSW 5 7 30.12 1020 10 16.09344 0 0
1:55 am 01:55 Clear 52 11 32 0 47 47 Calm 30.12 1020 10 16.09344 0 0
2:15 am 02:15 Clear 54 12 32 0 44 44 W 6 9 30.12 1020 10 16.09344 0 0
2:35 am 02:35 Clear 48 9 36 2 62 62 W 3 6 30.15 1021 10 16.09344 0 0
2:55 am 02:55 Clear 50 10 34 1 54 54 WSW 3 6 30.15 1021 10 16.09344 0 0
3:15 am 03:15 Clear 50 10 34 1 54 54 Calm 30.15 1021 10 16.09344 0 0
3:35 am 03:35 Clear 52 11 32 0 47 47 Calm 30.12 1020 10 16.09344 0 0
3:55 am 03:55 Clear 52 11 32 0 47 47 Calm 30.12 1020 10 16.09344 0 0
4:15 am 04:15 Clear 50 10 32 0 50 50 Calm 30.15 1021 10 16.09344 0 0
4:35 am 04:35 Clear 46 8 34 1 62 62 Calm 30.15 1021 10 16.09344 0 0
4:55 am 04:55 Clear 50 10 32 0 50 50 SSW 6 9 30.18 1022 10 16.09344 0 0
5:15 am 05:15 Clear 46 8 34 1 62 62 W 5 7 30.18 1022 10 16.09344 0 0
5:35 am 05:35 Clear 43 6 37 3 81 81 W 8 13 30.18 1022 10 16.09344 0 0
5:55 am 05:55 Clear 43 6 36 2 76 76 WNW 9 15 30.18 1022 10 16.09344 0 0
6:15 am 06:15 Sunny 43 6 36 2 76 76 WNW 8 13 30.18 1022 10 16.09344 0 0
6:35 am 06:35 Sunny 46 8 34 1 62 62 W 5 7 30.21 1023 10 16.09344 0 0
6:55 am 06:55 Sunny 46 8 34 1 62 62 S 7 11 30.21 1023 10 16.09344 0 0
7:10 am 07:10 Sunny 50 10 34 1 54 54 SSW 6 9 30.21 1023 10 16.09344 0 0
7:35 am 07:35 Sunny 50 10 41 5 71 71 SW 8 13 30.21 1023 10 16.09344 0 0
7:55 am 07:55 Sunny 54 12 43 6 67 67 SW 5 7 30.21 1023 10 16.09344 0 0
8:15 am 08:15 Sunny 61 16 37 3 42 42 SSW 3 6 30.21 1023 10 16.09344 0 0
8:35 am 08:35 Sunny 63 17 36 2 37 37 SW 5 7 30.21 1023 10 16.09344 0 0
8:55 am 08:55 Sunny 64 18 36 2 34 34 WSW 5 7 30.21 1023 10 16.09344 0 0
9:15 am 09:15 Sunny 68 20 37 3 33 33 WSW 5 7 30.21 1023 10 16.09344 0 0
9:35 am 09:35 Sunny 68 20 36 2 30 30 WSW 6 9 30.21 1023 10 16.09344 0 0
9:55 am 09:55 Sunny 70 21 36 2 29 29 W 6 9 30.21 1023 10 16.09344 0 0
10:15 am 10:15 Sunny 70 21 36 2 29 29 WNW 10 17 30.21 1023 10 16.09344 0 0
10:35 am 10:35 Sunny 72 22 37 3 29 29 NW 16 26 30.21 1023 10 16.09344 0 0
10:55 am 10:55 Sunny 72 22 36 2 27 27 WNW 13 20 30.21 1023 10 16.09344 0 0
11:15 am 11:15 Sunny 73 23 37 3 27 27 WNW 7 11 30.21 1023 10 16.09344 0 0
11:35 am 11:35 Sunny 73 23 36 2 25 25 W 6 9 30.21 1023 10 16.09344 0 0
11:55 am 11:55 Sunny 73 23 37 3 27 27 WNW 12 19 30.18 1022 10 16.09344 0 0
12:15 pm 12:15 Sunny 75 24 39 4 27 27 NNW 7 11 30.18 1022 10 16.09344 0 0
12:35 pm 12:35 Sunny 75 24 37 3 25 25 WNW 6 9 30.18 1022 10 16.09344 0 0
12:55 pm 12:55 Sunny 75 24 37 3 25 25 NW 8 13 30.18 1022 10 16.09344 0 0
1:15 pm 13:15 Sunny 77 25 37 3 24 24 NW 7 11 30.15 1021 10 16.09344 0 0
1:35 pm 13:35 Sunny 77 25 37 3 24 24 WNW 5 7 30.15 1021 10 16.09344 0 0
1:55 pm 13:55 Sunny 79 26 41 5 26 26 WNW 12 19 30.15 1021 10 16.09344 0 0
2:15 pm 14:15 Sunny 79 26 39 4 24 24 WNW 6 9 30.15 1021 10 16.09344 0 0
2:35 pm 14:35 Sunny 79 26 37 3 23 23 W 5 7 30.15 1021 10 16.09344 0 0
2:55 pm 14:55 Sunny 81 27 37 3 21 21 W 3 6 30.12 1020 10 16.09344 0 0
3:15 pm 15:15 Sunny 81 27 41 5 24 24 WNW 9 15 30.12 1020 10 16.09344 0 0
3:35 pm 15:35 Sunny with Nearby Thunderstorms 81 27 39 4 23 23 NW 7 11 30.12 1020 10 16.09344 0 0
3:55 pm 15:55 Sunny 81 27 36 2 20 20 W 10 17 30.12 1020 10 16.09344 0 0
4:15 pm 16:15 Sunny 82 28 39 4 21 21 WNW 8 13 30.12 1020 10 16.09344 0 0
4:35 pm 16:35 Sunny 82 28 37 3 20 20 WNW 8 13 30.09 1019 10 16.09344 0 0
4:55 pm 16:55 Sunny 82 28 37 3 20 20 NW 5 7 30.12 1020 10 16.09344 0 0
5:15 pm 17:15 Sunny 82 28 41 5 23 23 W 9 15 30.12 1020 10 16.09344 0 0
5:35 pm 17:35 Sunny 82 28 39 4 21 21 WNW 7 11 30.12 1020 10 16.09344 0 0
5:55 pm 17:55 Sunny 82 28 37 3 20 20 W 5 7 30.12 1020 10 16.09344 0 0
6:15 pm 18:15 Sunny 82 28 37 3 20 20 SW 7 11 30.12 1020 10 16.09344 0 0
6:35 pm 18:35 Sunny 82 28 37 3 20 20 SSW 5 7 30.12 1020 10 16.09344 0 0
6:55 pm 18:55 Sunny 81 27 37 3 21 21 SSW 10 17 30.12 1020 10 16.09344 0 0
7:15 pm 19:15 Sunny 81 27 39 4 23 23 S 7 11 30.12 1020 10 16.09344 0 0
7:35 pm 19:35 Sunny 79 26 37 3 23 23 S 5 7 30.12 1020 10 16.09344 0 0
7:55 pm 19:55 Sunny 66 19 32 0 28 28 NW 9 15 30.09 1019 10 16.09344 0 0
8:15 pm 20:15 Clear 77 25 37 3 24 24 S 6 9 30.12 1020 10 16.09344 0 0
8:35 pm 20:35 Clear 77 25 36 2 22 22 S 7 11 30.12 1020 10 16.09344 0 0
8:55 pm 20:55 Clear 72 22 37 3 29 29 S 5 7 30.12 1020 10 16.09344 0 0
9:15 pm 21:15 Clear 64 18 45 7 49 49 Calm 30.12 1020 10 16.09344 0 0
9:35 pm 21:35 Clear 66 19 41 5 40 40 SW 3 6 30.15 1021 10 16.09344 0 0
9:55 pm 21:55 Clear 64 18 41 5 43 43 Calm 30.15 1021 10 16.09344 0 0
10:15 pm 22:15 Clear 66 19 41 5 40 40 SSW 3 6 30.15 1021 10 16.09344 0 0
10:35 pm 22:35 Clear 64 18 41 5 43 43 SSW 3 6 30.15 1021 10 16.09344 0 0
10:55 pm 22:55 Clear 61 16 43 6 52 52 SW 3 6 30.15 1021 10 16.09344 0 0
11:10 pm 23:10 Clear 59 15 46 8 63 63 SSW 3 6 30.15 1021 10 16.09344 0 0
11:35 pm 23:35 Clear 59 15 45 7 59 59 Calm 30.15 1021 10 16.09344 0 0
11:55 pm 23:55 Clear 61 16 43 6 52 52 Calm 30.15 1021 10 16.09344 0 0

Powered by AerisWeather